FW4376 Weather Reports


time (UTC)temp
F
wind
direction
speed
knots
gust
knots
rain 1hr
in
rain 24hr
in
rain mn
in
humidity
%
barometer
mb
20240222111543 64 282 4.3 13.9 0.00 0.00 0.00 84 1007.7
20240222110018 64 232 3.5 12.2 0.00 0.00 0.00 84 1008.0
20240222104520 64 255 3.5 12.2 0.00 0.00 0.00 84 1007.7
20240222103033 64 291 4.3 13.9 0.00 0.00 0.00 84 1007.9
20240222101524 64 258 3.5 12.2 0.00 0.00 0.00 84 1008.1
20240222100009 64 243 3.5 11.3 0.00 0.00 0.00 84 1008.5
20240222094507 64 274 3.5 10.4 0.00 0.00 0.00 83 1008.9
20240222093003 64 278 2.6 10.4 0.00 0.00 0.00 83 1009.1
20240222091501 64 290 4.3 9.6 0.00 0.00 0.00 83 1009.4
20240222090101 64 227 4.3 10.4 0.00 0.00 0.00 83 1009.4
20240222084557 64 297 4.3 11.3 0.00 0.00 0.00 83 1009.6
20240222083058 64 236 3.5 12.2 0.00 0.00 0.00 83 1010.0
20240222081552 64 174 2.6 9.6 0.00 0.00 0.00 83 1010.3
20240222080053 64 230 4.3 11.3 0.00 0.00 0.00 82 1010.3
20240222074549 64 257 5.2 14.8 0.00 0.00 0.00 82 1010.4
20240222073050 64 295 2.6 9.6 0.00 0.00 0.00 82 1010.5
20240222071556 64 285 3.5 13.0 0.00 0.00 0.00 82 1010.5
20240222070049 64 296 3.5 13.9 0.00 0.00 0.00 82 1010.4
20240222064545 64 239 4.3 13.0 0.00 0.00 0.00 82 1010.4
20240222063105 64 98 4.3 12.2 0.00 0.00 0.00 82 1010.3
20240222061545 64 237 4.3 11.3 0.00 0.00 0.00 82 1010.7
20240222060040 64 259 7.8 15.6 0.00 0.00 0.00 82 1010.7
20240222054543 64 167 4.3 13.0 0.00 0.00 0.00 82 1010.4
20240222053036 64 250 3.5 14.8 0.00 0.00 0.00 81 1010.4
20240222051557 65 254 2.6 7.0 0.00 0.00 0.00 81 1010.6
20240222050135 65 96 2.6 7.8 0.00 0.00 0.00 80 1010.7
20240222044535 66 204 3.5 8.7 0.00 0.00 0.00 80 1010.7
20240222043034 66 171 1.7 7.0 0.00 0.00 0.00 79 1010.7
20240222041533 66 162 3.5 7.8 0.00 0.00 0.00 78 1010.7
20240222040039 67 302 2.6 12.2 0.00 0.00 0.00 78 1010.6
20240222034530 67 295 2.6 8.7 0.00 0.00 0.00 77 1010.5
20240222033030 67 155 2.6 8.7 0.00 0.00 0.00 76 1010.6
20240222031530 68 128 1.7 7.0 0.00 0.00 0.00 75 1010.7
20240222030029 68 135 1.7 7.8 0.00 0.00 0.00 74 1010.8
20240222024528 68 181 2.6 6.1 0.00 0.00 0.00 73 1010.8
20240222023033 69 165 0.9 6.1 0.00 0.00 0.00 72 1010.8
20240222021532 69 163 2.6 7.8 0.00 0.00 0.00 71 1011.1
20240222020027 69 236 1.7 7.0 0.00 0.00 0.00 71 1010.7
20240222014535 69 143 1.7 7.0 0.00 0.00 0.00 70 1010.7
20240222013029 70 220 1.7 6.1 0.00 0.00 0.00 69 1010.8
20240222011524 71 191 2.6 7.8 0.00 0.00 0.00 67 1010.5
20240222010024 71 160 1.7 7.0 0.00 0.00 0.00 65 1010.6
20240222004522 72 90 3.5 8.7 0.00 0.00 0.00 62 1010.6
20240222003025 73 108 1.7 7.0 0.00 0.00 0.00 61 1010.7
20240222001521 73 110 2.6 7.0 0.00 0.00 0.00 60 1010.3
20240222000023 74 246 2.6 9.6 0.00 0.00 0.00 58 1010.4
20240221234517 75 250 2.6 8.7 0.00 0.00 0.00 56 1010.7
20240221233024 76 90 3.5 13.0 0.00 0.00 0.00 55 1010.7
20240221231516 76 177 5.2 11.3 0.00 0.00 0.00 54 1010.6
20240221230014 78 167 4.3 13.9 0.00 0.00 0.00 53 1010.7
20240221224515 78 220 3.5 13.0 0.00 0.00 0.00 52 1010.8
20240221223010 78 127 3.5 11.3 0.00 0.00 0.00 52 1011.1
20240221221509 79 162 5.2 13.9 0.00 0.00 0.00 50 1011.2
20240221220008 79 233 4.3 11.3 0.00 0.00 0.00 51 1011.8
20240221214509 79 231 4.3 10.4 0.00 0.00 0.00 52 1012.1
20240221213004 79 245 4.3 16.5 0.00 0.00 0.00 51 1012.2
20240221211502 79 235 4.3 13.0 0.00 0.00 0.00 52 1012.2
20240221210059 80 112 3.5 8.7 0.00 0.00 0.00 50 1012.6
20240221204624 79 131 4.3 14.8 0.00 0.00 0.00 49 1013.2
20240221203053 79 75 3.5 10.4 0.00 0.00 0.00 51 1013.6
20240221201551 78 70 5.2 10.4 0.00 0.00 0.00 52 1014.0
20240221200110 78 229 3.5 13.9 0.00 0.00 0.00 53 1014.3
20240221194554 78 242 4.3 10.4 0.00 0.00 0.00 54 1014.4
20240221193042 77 269 3.5 11.3 0.00 0.00 0.00 54 1014.7
20240221191539 77 255 3.5 12.2 0.00 0.00 0.00 56 1015.1
20240221190038 76 281 5.2 14.8 0.00 0.00 0.00 58 1015.6
20240221184542 76 245 3.5 11.3 0.00 0.00 0.00 60 1016.0
20240221183029 75 275 3.5 10.4 0.00 0.00 0.00 61 1016.5
20240221181527 75 255 2.6 9.6 0.00 0.00 0.00 62 1016.9
20240221180030 73 248 3.5 13.0 0.00 0.00 0.00 65 1017.2
20240221174520 73 197 3.5 11.3 0.00 0.00 0.00 66 1017.4
20240221173022 72 264 4.3 11.3 0.00 0.00 0.00 67 1017.7
20240221171513 71 240 3.5 10.4 0.00 0.00 0.00 70 1017.9
20240221170011 70 160 5.2 11.3 0.00 0.00 0.00 71 1018.2
20240221164510 69 207 2.6 11.3 0.00 0.00 0.00 73 1018.3
20240221163004 68 275 4.3 13.0 0.00 0.00 0.00 76 1018.3
20240221161502 66 255 5.2 13.9 0.00 0.00 0.00 78 1018.6
20240221160059 65 300 6.1 14.8 0.00 0.00 0.00 80 1018.6
20240221154556 64 94 5.2 10.4 0.00 0.00 0.00 83 1018.8
20240221153052 63 257 3.5 9.6 0.00 0.00 0.00 85 1019.0
20240221151550 62 335 4.3 9.6 0.00 0.00 0.00 86 1018.9
20240221150047 62 290 2.6 11.3 0.00 0.00 0.00 88 1019.0
20240221144545 61 249 2.6 8.7 0.00 0.00 0.00 89 1019.0
20240221143046 61 221 2.6 8.7 0.00 0.00 0.00 90 1018.9
20240221141543 61 205 3.5 8.7 0.00 0.00 0.00 91 1018.8
20240221140043 60 152 3.5 8.7 0.00 0.00 0.00 92 1018.7
20240221134544 60 256 2.6 9.6 0.00 0.00 0.00 92 1018.7
20240221133045 59 13 3.5 7.8 0.00 0.00 0.00 92 1018.7
20240221131541 59 252 1.7 8.7 0.00 0.00 0.00 92 1018.8
20240221130046 59 256 2.6 9.6 0.00 0.00 0.00 92 1018.8
20240221124542 59 239 3.5 10.4 0.00 0.00 0.00 93 1018.6
20240221123038 59 246 1.7 12.2 0.00 0.00 0.00 93 1018.6
20240221121538 59 243 2.6 12.2 0.00 0.00 0.00 93 1018.6
20240221120048 58 263 1.7 6.1 0.00 0.00 0.00 94 1018.4
20240221114541 58 150 2.6 7.0 0.00 0.00 0.00 94 1018.2
20240221113033 57 289 0.9 6.1 0.00 0.00 0.00 93 1018.2